When you browse on this site, cookies collect data to enhance your experience and personalize the content and advertising you see.
Visit our Privacy Policy to learn more. By continuing to use the site, you agree to this use of cookies and data.
  • In Portugal
  • List of Countries
  • For 7 days
  • Water Temperature
  • Weather Map
  • Weather Widgets
  • user-avatar
    Login

    Hourly Weather Oleiros

    Today, 8 December, Sunday

    Time Temperature Precipitation Wind Pressure Humidity
    00:00 +12°C° 0 mm 3 mps 760 mmHg 91%
    01:00 +13°C° 0 mm 3 mps 760 mmHg 91%
    02:00 +13°C° 0 mm 3 mps 759 mmHg 91%
    03:00 +13°C° 0.1 mm 4 mps 759 mmHg 92%
    04:00 +13°C° 0.1 mm 4 mps 759 mmHg 92%
    05:00 +13°C° 0.1 mm 4 mps 759 mmHg 92%
    06:00 +13°C° 1.1 mm 4 mps 759 mmHg 94%
    07:00 +13°C° 1.1 mm 4 mps 759 mmHg 95%
    08:00 +14°C° 1.1 mm 3 mps 760 mmHg 96%
    09:00 +14°C° 0.4 mm 3 mps 760 mmHg 96%
    10:00 +13°C° 0.4 mm 3 mps 761 mmHg 97%
    11:00 +13°C° 0.4 mm 3 mps 761 mmHg 97%
    12:00 +13°C° 0 mm 3 mps 761 mmHg 95%
    13:00 +13°C° 0 mm 3 mps 761 mmHg 93%
    14:00 +12°C° 0 mm 3 mps 762 mmHg 91%
    15:00 +12°C° 0 mm 2 mps 762 mmHg 92%
    16:00 +10°C° 0 mm 2 mps 762 mmHg 94%
    17:00 +10°C° 0 mm 1 mps 763 mmHg 95%
    18:00 +10°C° 0 mm 1 mps 763 mmHg 95%
    19:00 +10°C° 0 mm 1 mps 764 mmHg 94%
    20:00 +10°C° 0 mm 1 mps 764 mmHg 94%
    21:00 +10°C° 0 mm 1 mps 765 mmHg 94%
    22:00 +9°C° 0 mm 2 mps 765 mmHg 95%
    23:00 +8°C° 0 mm 2 mps 765 mmHg 95%

    Tomorrow, 9 December, Monday

    Time Temperature Precipitation Wind Pressure Humidity
    00:00 +9°C° 0 mm 2 mps 766 mmHg 95%
    01:00 +9°C° 0 mm 2 mps 766 mmHg 94%
    02:00 +9°C° 0 mm 2 mps 766 mmHg 94%
    03:00 +10°C° 0 mm 2 mps 766 mmHg 94%
    04:00 +10°C° 0 mm 2 mps 766 mmHg 94%
    05:00 +11°C° 0 mm 1 mps 766 mmHg 94%
    06:00 +11°C° 0 mm 1 mps 767 mmHg 94%
    07:00 +11°C° 0 mm 1 mps 767 mmHg 94%
    08:00 +11°C° 0 mm 1 mps 767 mmHg 93%
    09:00 +12°C° 0 mm 1 mps 767 mmHg 89%
    10:00 +12°C° 0 mm 1 mps 767 mmHg 84%
    11:00 +13°C° 0 mm 1 mps 767 mmHg 79%
    12:00 +13°C° 0 mm 1 mps 767 mmHg 79%
    13:00 +12°C° 0 mm 0 mps 767 mmHg 79%
    14:00 +12°C° 0 mm 0 mps 766 mmHg 79%
    15:00 +11°C° 0 mm 0 mps 766 mmHg 84%
    16:00 +10°C° 0 mm 0 mps 766 mmHg 89%
    17:00 +9°C° 0 mm 0 mps 766 mmHg 94%
    18:00 +10°C° 0 mm 1 mps 766 mmHg 93%
    19:00 +10°C° 0 mm 1 mps 766 mmHg 93%
    20:00 +10°C° 0 mm 1 mps 766 mmHg 92%
    21:00 +10°C° 0 mm 1 mps 766 mmHg 90%
    22:00 +9°C° 0 mm 1 mps 766 mmHg 88%
    23:00 +9°C° 0 mm 1 mps 765 mmHg 86%

    Day after tomorrow, 10 December, Tuesday

    Time Temperature Precipitation Wind Pressure Humidity
    00:00 +9°C° 0 mm 1 mps 765 mmHg 83%
    01:00 +8°C° 0 mm 2 mps 764 mmHg 80%
    02:00 +8°C° 0 mm 2 mps 764 mmHg 78%
    03:00 +8°C° 0 mm 2 mps 764 mmHg 76%
    04:00 +8°C° 0 mm 2 mps 763 mmHg 75%
    05:00 +7°C° 0 mm 2 mps 763 mmHg 73%
    06:00 +8°C° 0 mm 2 mps 762 mmHg 70%
    07:00 +8°C° 0 mm 3 mps 762 mmHg 67%
    08:00 +9°C° 0 mm 3 mps 762 mmHg 64%
    09:00 +10°C° 0 mm 3 mps 762 mmHg 60%
    10:00 +12°C° 0 mm 4 mps 761 mmHg 55%
    11:00 +13°C° 0 mm 4 mps 761 mmHg 50%
    12:00 +13°C° 0 mm 4 mps 760 mmHg 53%
    13:00 +13°C° 0 mm 5 mps 760 mmHg 55%
    14:00 +13°C° 0 mm 5 mps 759 mmHg 58%
    15:00 +12°C° 0.1 mm 5 mps 759 mmHg 66%
    16:00 +12°C° 0.1 mm 5 mps 759 mmHg 74%
    17:00 +10°C° 0.1 mm 6 mps 759 mmHg 83%
    18:00 +10°C° 1.9 mm 5 mps 759 mmHg 87%
    19:00 +10°C° 1.9 mm 4 mps 760 mmHg 92%
    20:00 +10°C° 1.9 mm 4 mps 760 mmHg 97%
    21:00 +10°C° 1.4 mm 4 mps 761 mmHg 97%
    22:00 +10°C° 1.4 mm 3 mps 761 mmHg 96%
    23:00 +10°C° 1.4 mm 3 mps 761 mmHg 96%

    11 December, Wednesday

    Time Temperature Precipitation Wind Pressure Humidity
    00:00 +9°C° 0.1 mm 3 mps 762 mmHg 94%
    01:00 +9°C° 0.1 mm 3 mps 762 mmHg 92%
    02:00 +7°C° 0.1 mm 4 mps 762 mmHg 89%
    03:00 +8°C° 0 mm 3 mps 763 mmHg 89%
    04:00 +8°C° 0 mm 3 mps 763 mmHg 88%
    05:00 +7°C° 0 mm 2 mps 763 mmHg 88%
    06:00 +7°C° 0.1 mm 2 mps 764 mmHg 88%
    07:00 +7°C° 0.1 mm 2 mps 764 mmHg 89%
    08:00 +7°C° 0.1 mm 2 mps 765 mmHg 90%
    09:00 +8°C° 0 mm 3 mps 765 mmHg 85%
    10:00 +9°C° 0 mm 3 mps 765 mmHg 81%
    11:00 +10°C° 0 mm 4 mps 765 mmHg 77%
    12:00 +10°C° 0.1 mm 4 mps 765 mmHg 77%
    13:00 +10°C° 0.1 mm 4 mps 764 mmHg 77%
    14:00 +10°C° 0.1 mm 4 mps 764 mmHg 77%
    15:00 +10°C° 0.2 mm 4 mps 764 mmHg 82%
    16:00 +8°C° 0.2 mm 4 mps 764 mmHg 87%
    17:00 +9°C° 0.2 mm 3 mps 765 mmHg 92%
    18:00 +8°C° 0.2 mm 3 mps 765 mmHg 93%
    19:00 +8°C° 0.2 mm 3 mps 765 mmHg 94%
    20:00 +8°C° 0.2 mm 3 mps 765 mmHg 95%
    21:00 +8°C° 0.1 mm 3 mps 765 mmHg 96%
    22:00 +8°C° 0.1 mm 3 mps 765 mmHg 96%
    23:00 +7°C° 0.1 mm 3 mps 765 mmHg 96%

    12 December, Thursday

    Time Temperature Precipitation Wind Pressure Humidity
    00:00 +8°C° 0.2 mm 3 mps 764 mmHg 96%
    01:00 +8°C° 0.2 mm 3 mps 764 mmHg 96%
    02:00 +8°C° 0.2 mm 3 mps 764 mmHg 96%
    03:00 +8°C° 0.2 mm 3 mps 764 mmHg 96%
    04:00 +7°C° 0.2 mm 4 mps 763 mmHg 96%
    05:00 +7°C° 0.2 mm 4 mps 763 mmHg 96%
    06:00 +8°C° 0.1 mm 4 mps 763 mmHg 96%
    07:00 +8°C° 0.1 mm 4 mps 763 mmHg 96%
    08:00 +8°C° 0.1 mm 4 mps 763 mmHg 96%
    09:00 +10°C° 0.1 mm 4 mps 763 mmHg 93%
    10:00 +10°C° 0.1 mm 5 mps 763 mmHg 90%
    11:00 +12°C° 0.1 mm 5 mps 762 mmHg 88%
    12:00 +10°C° 0.2 mm 5 mps 762 mmHg 89%
    13:00 +10°C° 0.2 mm 6 mps 762 mmHg 90%
    14:00 +10°C° 0.2 mm 6 mps 761 mmHg 90%
    15:00 +10°C° 0.3 mm 6 mps 761 mmHg 92%
    16:00 +10°C° 0.3 mm 6 mps 761 mmHg 93%
    17:00 +10°C° 0.3 mm 6 mps 761 mmHg 95%
    18:00 +10°C° 0.8 mm 6 mps 761 mmHg 95%
    19:00 +10°C° 0.8 mm 6 mps 761 mmHg 96%
    20:00 +12°C° 0.8 mm 5 mps 761 mmHg 97%
    21:00 +12°C° 0.1 mm 5 mps 761 mmHg 96%
    22:00 +12°C° 0.1 mm 5 mps 761 mmHg 96%
    23:00 +12°C° 0.1 mm 5 mps 761 mmHg 96%

    13 December, Friday

    Time Temperature Precipitation Wind Pressure Humidity
    00:00 +12°C° 0 mm 5 mps 761 mmHg 96%
    01:00 +12°C° 0 mm 5 mps 761 mmHg 95%
    02:00 +12°C° 0 mm 5 mps 761 mmHg 95%
    03:00 +12°C° 0.1 mm 5 mps 761 mmHg 95%
    04:00 +12°C° 0.1 mm 5 mps 761 mmHg 95%
    05:00 +12°C° 0.1 mm 5 mps 761 mmHg 95%
    06:00 +12°C° 0.1 mm 5 mps 761 mmHg 95%
    07:00 +12°C° 0.1 mm 5 mps 762 mmHg 95%
    08:00 +13°C° 0.1 mm 5 mps 762 mmHg 94%
    09:00 +13°C° 0.1 mm 5 mps 762 mmHg 94%
    10:00 +13°C° 0.1 mm 6 mps 762 mmHg 93%
    11:00 +13°C° 0.1 mm 6 mps 762 mmHg 92%
    12:00 +13°C° 0.1 mm 6 mps 762 mmHg 91%
    13:00 +13°C° 0.1 mm 6 mps 761 mmHg 90%
    14:00 +13°C° 0.1 mm 6 mps 761 mmHg 89%
    15:00 +13°C° 0.1 mm 5 mps 761 mmHg 90%
    16:00 +12°C° 0.1 mm 5 mps 761 mmHg 91%
    17:00 +12°C° 0.1 mm 5 mps 761 mmHg 91%
    18:00 +12°C° 0 mm 5 mps 761 mmHg 91%
    19:00 +12°C° 0 mm 5 mps 761 mmHg 90%
    20:00 +12°C° 0 mm 5 mps 761 mmHg 90%
    21:00 +11°C° 0 mm 6 mps 761 mmHg 90%
    22:00 +11°C° 0 mm 6 mps 760 mmHg 89%
    23:00 +11°C° 0 mm 6 mps 760 mmHg 89%
    Show more